sat.trackr.live / text

‹ back to catalog

STARLINK-3977

NORAD 52640 · 2022-052AU

PAYLOAD ACTIVE UNKNOWN

§ Identity

Operator
Country
US
Launch date
2022-05-14
Launch site
AFETR
Launch vehicle
Mass (kg)
RCS (m²)

Purposes: comms

External: N2YO · Heavens-Above · Gunter

§ Orbital elements

Epoch: 2026-09-19T22:00:16.043040Z

Period
93.79 min
Inclination
53.1584°
Eccentricity
0.0001128
Mean motion
15.35394527 rev/d
Perigee alt
459.0 km
Apogee alt
460.5 km
Semi-major
6,837.9 km
B*
2.0115e-5
RAAN
94.8328°
Arg perigee
98.6637°
Mean anomaly
261.4493°
Rev number
24,061

§ Raw data

STARLINK-39771 52640U 22052AU  26262.91685235  .00000321  00000+0  20115-4 0  99932 52640  53.1584  94.8328 0001128  98.6637 261.4493 15.35394527240616

JSON: /api/v1/satellites/52640 · /tle

For live sub-satellite position, see the globe view (requires WebGL).

§ Visibility from observer

Set your observer location to see the next 7 days of passes ≥ 10°. The values pass through the URL so the page stays shareable.

No JS? Fill the form by hand. The geolocation button needs JavaScript.